Location: Newark
(28.9833°N, 10.0667°W)
Time: 10:57:39
(UTC+00:00)

Hubble Space Telescope - Pass Details

Date: 15 December 2019
Orbit: 536 x 540 km, 28.5° (Epoch: 22 January)

Event Time Altitude Azimuth Distance (km) Brightness Sun altitude
Exits shadow 06:39:32 - 254° (WSW) 1,945 3.1 -10.1°
Reaches altitude 10° 06:39:57 10° 253° (WSW) 1,784 3.0 -10.1°
Maximum altitude 06:44:03 68° 170° (S) 577 1.0 -9.2°
Drops below altitude 10° 06:48:10 10° 87° (E) 1,786 4.6 -8.4°
Sets 06:50:26 0° 85° (E) 2,678 5.6 -7.9°
